AZU4235 SBMQ-SBBE

Flight info

Callsign AZU4235
Flight time 0h 36m
Altitude 23000
Route 0111S04845W DCT 0118S04836W
Aircraft A20N/M-SDE2E3FGHIRWXY/LB1

Departure

Time 2026-04-23 21:47
Airport Macapá - Alberto Alcolumbre International Airport (SBMQ)

Arrival

Time 2026-04-23 22:23
Airport Val de Cans/Júlio Cezar Ribeiro International Airport (SBBE)
Time Latitude Longitude Altitude Speed Heading
2026-04-23 21:27 0.05027 -51.06826 27 ft 0 kts 148°
2026-04-23 21:38 0.05033 -51.06830 27 ft 2 kts 148°
2026-04-23 21:38 0.05047 -51.06838 27 ft 2 kts 148°
2026-04-23 21:38 0.05061 -51.06847 27 ft 2 kts 148°
2026-04-23 21:39 0.05076 -51.06851 27 ft 2 kts 214°
2026-04-23 21:39 0.05088 -51.06840 27 ft 2 kts 235°
2026-04-23 21:39 0.05097 -51.06827 27 ft 2 kts 237°
2026-04-23 21:39 0.05102 -51.06819 27 ft 0 kts 237°
2026-04-23 21:41 0.05107 -51.06836 27 ft 4 kts 313°
2026-04-23 21:41 0.05137 -51.06857 27 ft 9 kts 327°
2026-04-23 21:41 0.05200 -51.06896 28 ft 10 kts 328°
2026-04-23 21:42 0.05232 -51.06941 29 ft 8 kts 272°
2026-04-23 21:42 0.05206 -51.06993 30 ft 9 kts 236°
2026-04-23 21:42 0.05170 -51.07048 30 ft 10 kts 237°
2026-04-23 21:42 0.05129 -51.07112 30 ft 12 kts 238°
2026-04-23 21:43 0.05079 -51.07190 29 ft 14 kts 236°
2026-04-23 21:43 0.05021 -51.07280 29 ft 16 kts 238°
2026-04-23 21:43 0.04962 -51.07371 29 ft 15 kts 237°
2026-04-23 21:43 0.04900 -51.07469 27 ft 19 kts 238°
2026-04-23 21:44 0.04825 -51.07582 28 ft 20 kts 238°
2026-04-23 21:44 0.04749 -51.07701 28 ft 21 kts 237°
2026-04-23 21:44 0.04667 -51.07828 27 ft 23 kts 237°
2026-04-23 21:44 0.04597 -51.07935 27 ft 11 kts 230°
2026-04-23 21:45 0.04539 -51.07961 28 ft 6 kts 211°
2026-04-23 21:45 0.04541 -51.07989 28 ft 4 kts 308°
2026-04-23 21:45 0.04560 -51.07991 28 ft 4 kts 21°
2026-04-23 21:45 0.04571 -51.07978 28 ft 0 kts 58°
2026-04-23 21:46 0.04582 -51.07960 28 ft 13 kts 58°
2026-04-23 21:46 0.04765 -51.07675 26 ft 86 kts 57°
2026-04-23 21:46 0.05199 -51.07001 34 ft 145 kts 57°
2026-04-23 21:46 0.05367 -51.05999 438 ft 160 kts 115°
2026-04-23 21:47 0.04591 -51.05144 946 ft 172 kts 131°
2026-04-23 21:47 0.03861 -51.04101 1292 ft 194 kts 121°
2026-04-23 21:47 0.03109 -51.02891 1683 ft 217 kts 122°
2026-04-23 21:47 0.02254 -51.01552 2136 ft 241 kts 122°
2026-04-23 21:48 0.01300 -51.00073 2663 ft 262 kts 122°
2026-04-23 21:48 0.00300 -50.98525 3513 ft 269 kts 122°
2026-04-23 21:48 -0.00703 -50.96968 4476 ft 272 kts 122°
2026-04-23 21:48 -0.01728 -50.95372 5401 ft 274 kts 122°
2026-04-23 21:49 -0.02762 -50.93760 6313 ft 277 kts 122°
2026-04-23 21:49 -0.03808 -50.92128 7152 ft 280 kts 122°
2026-04-23 21:49 -0.04863 -50.90477 8021 ft 283 kts 122°
2026-04-23 21:49 -0.05930 -50.88808 8871 ft 287 kts 122°
2026-04-23 21:50 -0.07008 -50.87121 9712 ft 290 kts 122°
2026-04-23 21:50 -0.08109 -50.85399 10277 ft 303 kts 122°
2026-04-23 21:50 -0.09286 -50.83556 10554 ft 325 kts 122°
2026-04-23 21:50 -0.10523 -50.81623 11128 ft 334 kts 122°
2026-04-23 21:51 -0.11783 -50.79656 11841 ft 338 kts 122°
2026-04-23 21:51 -0.13056 -50.77667 12581 ft 341 kts 121°
2026-04-23 21:51 -0.14343 -50.75659 13305 ft 345 kts 121°
2026-04-23 21:51 -0.15644 -50.73633 13984 ft 348 kts 121°
2026-04-23 21:52 -0.16955 -50.71587 14603 ft 351 kts 121°
2026-04-23 21:52 -0.18266 -50.69538 15211 ft 354 kts 121°
2026-04-23 21:52 -0.19590 -50.67466 15829 ft 357 kts 121°
2026-04-23 21:52 -0.20932 -50.65366 16438 ft 360 kts 121°
2026-04-23 21:53 -0.22286 -50.63249 17036 ft 363 kts 121°
2026-04-23 21:53 -0.23648 -50.61119 17628 ft 366 kts 121°
2026-04-23 21:53 -0.25024 -50.58966 18208 ft 369 kts 121°
2026-04-23 21:53 -0.25942 -50.57529 18548 ft 371 kts 121°
2026-04-23 21:54 -0.27811 -50.54609 19205 ft 375 kts 121°
2026-04-23 21:54 -0.28741 -50.53155 19528 ft 376 kts 121°
2026-04-23 21:54 -0.30156 -50.50942 20025 ft 379 kts 121°
2026-04-23 21:54 -0.31579 -50.48712 20511 ft 382 kts 121°
2026-04-23 21:55 -0.33498 -50.45707 21146 ft 385 kts 122°
2026-04-23 21:55 -0.34453 -50.44212 21452 ft 387 kts 121°
2026-04-23 21:55 -0.35904 -50.41935 21913 ft 390 kts 121°
2026-04-23 21:55 -0.37366 -50.39643 22374 ft 392 kts 122°
2026-04-23 21:56 -0.38842 -50.37340 22806 ft 395 kts 122°
2026-04-23 21:56 -0.40797 -50.34293 22924 ft 386 kts 122°
2026-04-23 21:56 -0.41766 -50.32782 22935 ft 381 kts 122°
2026-04-23 21:56 -0.43188 -50.30563 22933 ft 378 kts 122°
2026-04-23 21:57 -0.44600 -50.28352 22931 ft 377 kts 122°
2026-04-23 21:57 -0.46011 -50.26144 22931 ft 377 kts 122°
2026-04-23 21:57 -0.47430 -50.23921 22929 ft 384 kts 120°
2026-04-23 21:57 -0.48674 -50.21589 22928 ft 378 kts 116°
2026-04-23 21:58 -0.49844 -50.19242 22931 ft 377 kts 115°
2026-04-23 21:58 -0.50968 -50.16919 22931 ft 376 kts 115°
2026-04-23 21:58 -0.52118 -50.14515 22931 ft 381 kts 115°
2026-04-23 21:58 -0.53247 -50.12178 22932 ft 377 kts 115°
2026-04-23 21:59 -0.54392 -50.09828 22931 ft 376 kts 115°
2026-04-23 21:59 -0.55537 -50.07484 22931 ft 375 kts 115°
2026-04-23 21:59 -0.56679 -50.05146 22934 ft 375 kts 115°
2026-04-23 22:00 -0.58972 -50.00462 22931 ft 375 kts 115°
2026-04-23 22:00 -0.60116 -49.98116 22937 ft 376 kts 115°
2026-04-23 22:00 -0.61257 -49.95770 22935 ft 376 kts 115°
2026-04-23 22:00 -0.62398 -49.93419 22937 ft 376 kts 115°
2026-04-23 22:01 -0.63417 -49.91322 22938 ft 376 kts 115°
2026-04-23 22:01 -0.64561 -49.88976 22937 ft 375 kts 115°
2026-04-23 22:01 -0.65707 -49.86630 22933 ft 375 kts 115°
2026-04-23 22:01 -0.66848 -49.84294 22932 ft 375 kts 115°
2026-04-23 22:02 -0.67990 -49.81949 22930 ft 375 kts 115°
2026-04-23 22:02 -0.69128 -49.79606 22929 ft 375 kts 115°
2026-04-23 22:02 -0.70269 -49.77260 22931 ft 375 kts 115°
2026-04-23 22:02 -0.71410 -49.74916 22931 ft 375 kts 115°
2026-04-23 22:03 -0.72553 -49.72570 22929 ft 375 kts 115°
2026-04-23 22:03 -0.73694 -49.70229 22931 ft 375 kts 115°
2026-04-23 22:03 -0.74836 -49.67885 22933 ft 375 kts 115°
2026-04-23 22:03 -0.75981 -49.65542 22934 ft 375 kts 115°
2026-04-23 22:04 -0.77121 -49.63214 22665 ft 371 kts 115°
2026-04-23 22:04 -0.78250 -49.60903 22163 ft 368 kts 115°
2026-04-23 22:04 -0.79363 -49.58615 21695 ft 365 kts 115°
2026-04-23 22:04 -0.80469 -49.56335 21230 ft 363 kts 115°
2026-04-23 22:05 -0.81565 -49.54082 20768 ft 360 kts 115°
2026-04-23 22:05 -0.82658 -49.51840 20320 ft 358 kts 115°
2026-04-23 22:05 -0.83743 -49.49611 19868 ft 356 kts 115°
2026-04-23 22:05 -0.84824 -49.47393 19425 ft 354 kts 115°
2026-04-23 22:06 -0.85902 -49.45185 18978 ft 353 kts 115°
2026-04-23 22:06 -0.86973 -49.42985 18545 ft 352 kts 115°
2026-04-23 22:06 -0.88040 -49.40791 18081 ft 350 kts 115°
2026-04-23 22:06 -0.89106 -49.38608 17606 ft 348 kts 115°
2026-04-23 22:07 -0.90163 -49.36444 17191 ft 345 kts 115°
2026-04-23 22:07 -0.91197 -49.34326 16771 ft 342 kts 115°
2026-04-23 22:07 -0.92234 -49.32195 16355 ft 340 kts 115°
2026-04-23 22:07 -0.93263 -49.30079 15934 ft 337 kts 115°
2026-04-23 22:08 -0.94287 -49.27976 15529 ft 336 kts 115°
2026-04-23 22:08 -0.95305 -49.25885 15121 ft 334 kts 115°
2026-04-23 22:08 -0.96318 -49.23804 14717 ft 332 kts 115°
2026-04-23 22:08 -0.97326 -49.21733 14311 ft 331 kts 115°
2026-04-23 22:09 -0.98332 -49.19670 13909 ft 330 kts 115°
2026-04-23 22:09 -0.99333 -49.17619 13483 ft 328 kts 115°
2026-04-23 22:09 -1.00330 -49.15574 13064 ft 326 kts 115°
2026-04-23 22:09 -1.01317 -49.13544 12656 ft 324 kts 115°
2026-04-23 22:10 -1.02297 -49.11529 12251 ft 321 kts 115°
2026-04-23 22:10 -1.03270 -49.09533 11962 ft 315 kts 115°
2026-04-23 22:10 -1.04215 -49.07597 11833 ft 305 kts 115°
2026-04-23 22:10 -1.05132 -49.05714 11579 ft 299 kts 115°
2026-04-23 22:11 -1.06035 -49.03851 11244 ft 297 kts 115°
2026-04-23 22:11 -1.06934 -49.02000 10895 ft 295 kts 115°
2026-04-23 22:11 -1.07830 -49.00157 10537 ft 294 kts 115°
2026-04-23 22:11 -1.08725 -48.98323 10195 ft 293 kts 115°
2026-04-23 22:12 -1.09616 -48.96497 9850 ft 292 kts 115°
2026-04-23 22:12 -1.10502 -48.94677 9464 ft 290 kts 115°
2026-04-23 22:12 -1.11383 -48.92867 9084 ft 289 kts 115°
2026-04-23 22:12 -1.12262 -48.91068 8704 ft 287 kts 115°
2026-04-23 22:13 -1.13137 -48.89279 8320 ft 286 kts 115°
2026-04-23 22:13 -1.14007 -48.87498 7927 ft 284 kts 115°
2026-04-23 22:13 -1.14870 -48.85727 7539 ft 283 kts 115°
2026-04-23 22:13 -1.15727 -48.83965 7146 ft 281 kts 115°
2026-04-23 22:14 -1.16583 -48.82209 6758 ft 280 kts 115°
2026-04-23 22:14 -1.17429 -48.80473 6460 ft 276 kts 115°
2026-04-23 22:14 -1.18266 -48.78756 6146 ft 274 kts 115°
2026-04-23 22:14 -1.19098 -48.77049 5837 ft 272 kts 115°
2026-04-23 22:15 -1.19926 -48.75354 5533 ft 271 kts 115°
2026-04-23 22:15 -1.20754 -48.73658 5224 ft 270 kts 115°
2026-04-23 22:15 -1.21575 -48.71977 4933 ft 269 kts 115°
2026-04-23 22:15 -1.22384 -48.70319 4636 ft 268 kts 115°
2026-04-23 22:16 -1.23211 -48.68623 4329 ft 268 kts 115°
2026-04-23 22:16 -1.24026 -48.66951 4030 ft 267 kts 115°
2026-04-23 22:16 -1.24839 -48.65281 3728 ft 267 kts 115°
2026-04-23 22:16 -1.25641 -48.63636 3443 ft 267 kts 115°
2026-04-23 22:17 -1.26454 -48.61970 3147 ft 267 kts 115°
2026-04-23 22:17 -1.27266 -48.60303 2839 ft 267 kts 114°
2026-04-23 22:17 -1.28077 -48.58640 2547 ft 266 kts 114°
2026-04-23 22:17 -1.28887 -48.56982 2252 ft 265 kts 114°
2026-04-23 22:18 -1.29683 -48.55353 2106 ft 254 kts 114°
2026-04-23 22:18 -1.30437 -48.53810 2012 ft 241 kts 114°
2026-04-23 22:18 -1.31254 -48.52398 1914 ft 231 kts 127°
2026-04-23 22:18 -1.32356 -48.51271 1804 ft 223 kts 135°
2026-04-23 22:19 -1.33506 -48.50267 1694 ft 217 kts 150°
2026-04-23 22:19 -1.34937 -48.49981 1605 ft 210 kts 191°
2026-04-23 22:19 -1.36187 -48.50616 1612 ft 202 kts 226°
2026-04-23 22:19 -1.37153 -48.51631 1613 ft 202 kts 227°
2026-04-23 22:20 -1.38132 -48.52639 1611 ft 202 kts 227°
2026-04-23 22:20 -1.39110 -48.53637 1599 ft 200 kts 227°
2026-04-23 22:20 -1.40077 -48.54531 1646 ft 181 kts 210°
2026-04-23 22:20 -1.41247 -48.54717 1571 ft 169 kts 164°
2026-04-23 22:21 -1.42218 -48.54148 1423 ft 158 kts 129°
2026-04-23 22:21 -1.42641 -48.53203 1272 ft 146 kts 92°
2026-04-23 22:21 -1.42422 -48.52264 1054 ft 138 kts 51°
2026-04-23 22:21 -1.41799 -48.51545 844 ft 136 kts 46°
2026-04-23 22:22 -1.41134 -48.50860 671 ft 138 kts 44°
2026-04-23 22:22 -1.40464 -48.50177 497 ft 137 kts 47°
2026-04-23 22:22 -1.39785 -48.49496 314 ft 139 kts 47°
2026-04-23 22:22 -1.39105 -48.48807 154 ft 139 kts 47°
2026-04-23 22:23 -1.38433 -48.48127 42 ft 130 kts 46°
2026-04-23 22:23 -1.37933 -48.47623 39 ft 62 kts 45°
2026-04-23 22:23 -1.37792 -48.47484 39 ft 14 kts 31°
2026-04-23 22:23 -1.37773 -48.47446 39 ft 7 kts 171°
2026-04-23 22:24 -1.37815 -48.47499 39 ft 12 kts 234°
2026-04-23 22:24 -1.37876 -48.47568 39 ft 15 kts 227°
2026-04-23 22:24 -1.37977 -48.47624 38 ft 18 kts 192°
2026-04-23 22:24 -1.38111 -48.47638 39 ft 20 kts 185°
2026-04-23 22:25 -1.38259 -48.47649 39 ft 22 kts 184°
2026-04-23 22:25 -1.38420 -48.47662 39 ft 24 kts 185°
2026-04-23 22:25 -1.38593 -48.47676 39 ft 23 kts 185°
2026-04-23 22:25 -1.38665 -48.47710 39 ft 7 kts 256°
2026-04-23 22:26 -1.38668 -48.47765 39 ft 9 kts 269°
2026-04-23 22:26 -1.38712 -48.47796 39 ft 9 kts 188°
2026-04-23 22:26 -1.38749 -48.47802 39 ft 3 kts 217°
2026-04-23 22:26 -1.38750 -48.47819 38 ft 4 kts 272°
2026-04-23 22:27 -1.38747 -48.47853 39 ft 3 kts 275°
2026-04-23 22:27 -1.38746 -48.47865 39 ft 0 kts 274°
2026-04-23 22:29 -1.42531 -48.53655 1339 ft 145 kts 108°
2026-04-23 22:30 0.04589 -51.07948 28 ft 18 kts 57°
2026-04-23 22:30 0.04590 -51.07948 29 ft 2 kts 57°
2026-04-23 22:30 0.04629 -51.07886 27 ft 46 kts 58°
2026-04-23 22:31 0.04956 -51.07381 29 ft 118 kts 57°
2026-04-23 22:31 0.05440 -51.06490 197 ft 147 kts 89°
2026-04-23 22:31 0.04965 -51.05497 787 ft 163 kts 138°